User: anonymous   Login
Location: Unspecified
(0.0000°N, 0.0000°E)
Time: 09:50:36
(UTC+00:00)
Language:

USA 224 - Orbit

View from above orbital plane
View from above orbital plane
View from above satellite
View from above satellite

Ground track
Ground track

The orbit data is extracted from the following two-line orbital elements,

1 37348U 11002A   24048.68049511 0.00044000  00000-0  42101-3 0    03
2 37348  97.8962 186.5165 0528349 176.0608 183.9391 14.78925444    01
Epoch (UTC): 17 February 2024 16:19:54
Eccentricity: 0.0528349
inclination: 97.8962°
perigee height: 262 km
apogee height: 1003 km
right ascension of ascending node: 186.5165°
argument of perigee: 176.0608°
revolutions per day: 14.78925444
mean anomaly at epoch: 183.9391°
orbit number at epoch: 0

The dashed part of the orbit path shows where the satellite is in the earth's shadow,  

DLR